+ View the NASA Portal
+ Center for Near-Earth Object Studies
IMPORTANT:
The SSD Announcement email list is now available. Major changes are coming in the near future, including possible hostname and/or URL changes. To be notified of such changes, subscribe to this email list.
Please visit
this page
for more details.
Don't show this message again
JPL Small-Body Database Browser
Search:
[
help
]
233328 (2006 BE255)
Classification:
Main-belt Asteroid
SPK-ID:
2233328
[
Ephemeris
|
Orbit Diagram
|
Orbital Elements
|
Mission Design
|
Physical Parameters
|
Discovery Circumstances
|
Close-Approach Data
]
[ show orbit diagram ]
Orbital Elements at Epoch 2458600.5 (2019-Apr-27.0) TDB
Reference:
JPL 9
(heliocentric ecliptic J2000)
Element
Value
Uncertainty (1-sigma)
Units
e
.1148229568693104
6.0579e-08
a
2.585345377691126
2.3777e-08
au
q
2.288488376896227
1.5539e-07
au
i
2.967600388714296
6.067e-06
deg
node
156.8880125712669
0.0001219
deg
peri
269.3602629503871
0.0001251
deg
M
130.6115530684681
3.2297e-05
deg
t
p
2458049.622070454388
(2017-Oct-23.12207045)
0.00013334
TDB
period
1518.365335817274
4.16
2.0946e-05
5.735e-08
d
yr
n
.2370970882355048
3.2709e-09
deg/d
Q
2.882202378486026
2.6507e-08
au
Orbit Determination Parameters
# obs. used (total)
148
data-arc span
6328 days (17.33 yr)
first obs. used
2002-01-12
last obs. used
2019-05-11
planetary ephem.
DE431
SB-pert. ephem.
SB431-N16
condition code
0
norm. resid. RMS
.65536
source
ORB
producer
Otto Matic
solution date
2019-May-30 08:32:03
Additional Information
Earth MOID
= 1.30422 au
Jupiter MOID
= 2.38372 au
T_jup
= 3.411
[ show covariance matrix ]
[
Ephemeris
|
Orbit Diagram
|
Orbital Elements
|
Mission Design
|
Physical Parameters
|
Discovery Circumstances
|
Close-Approach Data
]
Physical Parameter Table
Parameter
Symbol
Value
Units
Sigma
Reference
Notes
absolute magnitude
H
16.9
n/a
MPO433523
233328 (2006 BE255)
Discovered 2006-Jan-31 by Spacewatch at Kitt Peak
Reference:
20100228/Numbers.arc
Last Updated:
2010-03-03
[ show close-approach data ]
Alternate Designations
2006 BE255
= 2002 AN204 = 2008 RV72
[
Ephemeris
|
Orbit Diagram
|
Orbital Elements
|
Mission Design
|
Physical Parameters
|
Discovery Circumstances
|
Close-Approach Data
]
2019-Dec-11 06:14 UT
(server date/time)
Site Manager:
Ryan S. Park
Webmaster
:
Alan B. Chamberlin